GFSGBSN_sfc_wetblb_273.txt.gz
Wetbulb
63.53 63.39 63.81 64.13 63.99 63.27 62.66 62.78 61.82 60.70 60.49 61.27 61.10 61.28 61.57 61.54 61.27 61.55 61.66 61.76 62.48 63.16 62.86 62.64 62.81 62.65 52.30 44.35 44.49 50.89 65.00 61.50 60.44 56.18 52.56 52.41 47.86 44.83 41.23 40.69 40.30 36.73 36.44 38.11 37.83 37.14 35.64
64.01 63.43 63.82 63.89 63.81 63.44 62.63 62.19 61.99 60.85 60.48 60.70 61.18 61.26 61.29 61.06 60.87 60.95 61.41 61.55 62.07 62.41 61.93 62.06 62.64 61.58 46.47 41.63 49.30 50.26 52.80 53.69 53.71 52.12 49.68 50.31 48.21 46.14 41.87 39.25 38.57 37.28 36.76 36.04 36.64 35.82 35.57
64.01 63.44 63.60 63.78 63.60 63.47 63.02 62.11 61.81 61.09 60.26 60.60 60.60 60.48 60.60 60.75 60.64 60.72 61.25 61.39 61.57 61.27 61.44 62.20 62.27 56.40 45.52 44.34 49.03 48.79 52.82 51.04 52.35 52.32 49.62 49.06 48.57 45.53 42.08 37.84 39.56 37.68 33.61 33.97 33.37 34.77 33.77
64.08 63.85 63.45 63.40 63.41 63.28 63.10 62.47 61.78 61.02 60.16 59.56 60.02 60.06 59.85 59.99 60.08 60.53 60.76 60.67 60.49 60.65 61.36 62.09 59.06 46.14 42.81 49.62 48.78 49.92 50.39 48.66 50.40 51.65 49.75 48.68 48.18 44.20 41.38 40.24 38.64 34.54 32.93 29.31 33.36 35.16 34.58
64.50 64.12 63.45 63.28 63.16 63.09 63.15 62.80 61.83 60.92 60.52 59.66 59.60 59.63 59.69 59.42 59.41 59.98 59.91 59.95 60.72 61.67 62.69 61.51 47.79 43.55 41.40 54.56 47.57 47.54 48.42 47.85 48.27 48.20 50.27 51.86 46.76 41.29 40.33 35.59 32.60 32.33 28.89 29.71 31.53 35.47 34.07
64.39 63.94 63.33 63.20 63.10 62.94 63.03 62.84 62.02 60.88 60.39 59.98 59.54 59.20 59.15 59.01 59.00 59.27 58.75 59.82 60.24 59.14 56.87 52.84 49.64 43.11 45.25 44.52 47.04 47.70 46.91 48.91 47.71 47.03 46.20 45.35 40.19 35.04 33.24 33.26 28.15 28.70 27.78 29.95 30.31 33.18 32.37
63.48 63.71 63.50 63.07 62.90 62.88 62.82 62.73 62.00 61.10 60.14 59.86 59.49 58.82 58.51 58.75 58.66 58.49 55.48 50.81 48.98 46.66 46.91 43.72 43.59 43.39 44.84 46.22 47.88 45.97 46.64 46.37 46.41 44.32 38.26 39.74 37.16 32.46 31.27 32.83 33.07 32.12 30.40 29.87 31.69 34.70 31.58
61.92 62.32 62.51 63.21 63.19 62.83 62.70 62.53 61.85 61.19 60.39 59.79 59.51 58.74 58.21 58.31 57.85 56.99 52.68 49.17 48.06 48.84 42.88 46.60 46.03 45.42 46.83 45.98 43.41 44.53 46.85 42.49 42.26 38.33 38.78 37.46 33.39 35.10 37.04 36.08 34.01 33.13 30.21 27.93 31.19 34.44 31.75
60.75 60.81 60.98 61.72 62.81 63.17 62.66 62.13 61.48 60.96 60.52 59.91 59.27 58.53 58.07 57.85 57.03 53.16 49.77 50.01 52.48 49.31 42.14 44.84 46.10 45.36 45.32 46.43 42.34 41.86 44.94 42.53 38.95 36.22 35.01 34.22 35.21 39.26 37.57 33.39 32.93 30.14 28.51 27.23 28.25 31.02 30.88
59.73 60.09 60.07 60.52 62.01 63.09 62.47 61.71 61.17 60.70 60.31 59.55 58.77 58.18 57.74 56.86 52.53 49.46 50.46 53.73 53.39 49.29 36.70 39.48 43.09 44.63 46.46 46.19 42.06 45.32 44.42 43.38 39.96 35.62 35.12 33.57 36.52 36.51 34.72 33.35 31.81 28.20 32.36 32.54 31.73 27.35 23.99
58.36 59.05 59.15 59.20 60.69 62.64 61.95 61.18 60.96 60.56 59.89 59.14 58.53 57.76 56.97 55.98 47.18 50.34 52.86 53.46 52.23 48.29 28.77 42.16 43.01 47.48 45.12 43.56 42.72 43.19 45.01 43.11 38.18 37.05 35.98 32.08 33.86 33.18 33.36 33.08 32.84 30.48 33.73 32.45 31.87 26.97 24.74
56.18 58.07 57.46 58.31 59.38 60.21 61.56 61.04 60.89 60.44 59.88 59.33 58.51 57.50 56.03 50.62 47.75 51.08 52.71 52.17 49.39 37.68 30.16 40.03 43.20 41.45 41.08 41.73 41.23 43.36 42.01 43.66 41.12 37.56 35.44 33.11 36.26 33.91 32.15 34.37 34.03 34.63 31.97 31.54 29.16 26.13 22.84
54.28 55.89 57.01 56.59 57.89 58.45 59.37 60.88 60.97 60.66 60.32 59.31 57.88 56.70 54.56 52.34 47.58 50.50 51.40 48.19 36.80 31.80 41.41 38.86 39.36 41.32 39.47 38.33 38.42 39.52 37.91 35.98 34.41 31.36 30.21 32.56 32.98 34.36 34.95 31.29 33.08 31.29 26.58 23.66 24.61 22.94 23.94
53.27 54.50 56.42 55.63 55.90 57.43 58.43 59.17 60.33 60.44 60.09 58.60 56.26 55.05 53.62 52.27 49.15 50.61 48.01 42.95 31.18 38.38 39.30 42.45 41.61 40.30 38.04 39.32 36.91 37.73 35.44 34.10 34.21 34.32 30.94 30.46 29.84 31.61 32.92 29.65 27.83 27.58 26.91 24.42 23.95 21.89 22.19
52.52 53.49 54.43 55.27 54.58 55.41 56.91 57.76 58.76 60.30 59.30 56.83 53.74 45.89 46.65 49.23 50.33 49.50 43.29 33.85 35.96 39.77 43.08 41.36 40.87 36.55 36.34 38.70 37.38 35.05 34.09 33.92 34.92 35.26 31.91 30.39 29.87 32.21 32.95 31.58 30.79 27.70 25.49 26.83 23.35 20.73 20.79
51.83 52.38 52.67 52.91 54.06 54.01 54.80 56.10 57.70 59.32 58.85 55.53 47.18 44.40 45.90 50.12 50.29 47.18 39.70 36.82 38.76 43.83 43.65 42.50 37.52 37.94 34.90 36.51 35.63 33.64 33.52 35.14 35.43 35.37 34.01 32.52 29.05 31.04 32.65 32.51 31.33 28.20 30.95 25.85 24.26 19.99 20.89
51.08 51.15 51.75 52.15 52.20 53.04 53.58 54.80 55.78 57.28 57.05 53.81 43.93 42.75 47.77 48.00 48.94 42.98 35.51 36.38 41.56 45.29 44.92 42.12 39.46 38.13 37.14 36.93 36.68 33.49 34.15 35.01 36.63 34.87 33.41 31.83 31.54 27.46 30.73 28.76 28.38 27.71 25.98 25.27 24.77 22.41 18.30
50.13 50.19 50.43 51.19 51.57 52.27 52.35 53.30 54.37 55.20 54.24 49.13 42.70 39.27 47.47 47.36 39.94 36.16 36.66 40.67 45.44 43.83 43.51 42.97 42.19 41.08 38.88 37.57 35.64 34.37 35.30 34.86 36.37 36.19 32.61 32.07 30.20 27.47 28.64 29.01 30.62 28.28 26.54 26.88 22.71 21.21 17.34
49.20 48.95 49.39 49.90 50.75 50.89 51.06 52.15 53.14 54.14 53.14 44.64 40.36 40.60 47.38 46.25 35.38 34.35 38.31 42.12 43.19 42.24 42.20 41.72 41.64 42.22 40.62 37.91 35.08 36.64 35.39 36.71 36.69 35.21 33.14 33.26 29.16 25.71 25.51 26.90 28.69 26.90 27.90 26.72 24.84 22.35 18.56
48.85 48.64 49.48 50.06 49.89 50.07 50.52 51.70 52.43 53.38 54.07 45.28 40.59 37.62 41.33 41.04 38.46 36.95 36.84 38.73 40.01 42.23 42.64 42.35 41.30 41.96 39.35 36.97 37.85 35.75 34.87 35.70 35.86 36.10 43.06 37.49 29.41 29.61 27.52 28.70 29.62 26.06 27.86 27.24 26.00 17.80 19.42
48.73 48.45 49.19 50.49 49.81 49.50 49.71 50.16 51.60 52.64 53.11 46.90 42.55 38.23 38.99 35.03 37.31 37.75 38.05 38.63 38.80 39.30 40.70 41.77 39.20 41.60 39.64 35.00 35.14 35.46 34.00 32.30 33.96 39.67 33.05 33.05 28.81 28.08 29.98 32.04 30.73 30.80 29.09 26.34 24.04 25.41 25.80
48.70 48.41 48.85 50.27 49.62 49.05 49.12 49.49 50.70 52.05 52.80 47.93 43.59 38.70 39.84 36.91 39.83 37.14 37.51 36.36 39.63 39.91 39.82 38.30 38.87 41.40 39.63 37.48 38.98 37.11 35.02 33.00 33.64 31.28 30.66 30.20 28.84 28.50 28.42 29.08 29.95 28.99 30.12 28.21 27.56 25.89 25.81
48.88 48.57 48.38 49.22 48.52 48.33 48.57 49.16 49.33 51.00 51.43 49.12 48.78 43.58 40.80 38.37 36.87 36.38 36.79 38.53 40.34 41.17 40.41 40.50 40.85 40.01 38.26 39.92 39.48 36.05 35.42 35.01 35.11 32.28 30.19 29.36 28.52 25.95 25.57 28.12 27.99 28.04 28.27 29.08 26.49 26.92 29.39
49.07 48.62 48.32 48.43 48.41 47.72 48.01 48.70 49.03 50.62 50.95 49.88 48.66 46.12 40.26 35.24 37.10 37.35 39.50 40.16 39.05 39.88 38.95 37.58 38.31 39.68 37.25 37.42 37.73 37.42 35.07 33.64 33.79 31.53 32.48 28.11 27.66 24.66 22.00 25.74 23.43 31.42 30.02 31.57 31.53 30.26 29.87
49.54 48.72 48.34 47.98 48.27 47.57 47.73 48.11 49.26 49.72 49.92 46.84 48.63 45.97 43.84 36.52 37.78 39.09 39.94 38.72 36.29 35.16 35.33 35.81 35.27 35.69 37.33 38.17 32.96 31.18 30.98 30.66 29.93 30.27 30.00 31.27 28.04 21.15 23.50 22.71 29.86 29.82 28.52 29.61 29.85 33.19 34.43
49.94 49.17 48.38 48.19 47.91 48.58 48.90 47.84 48.18 48.34 48.71 46.64 48.45 51.23 46.91 41.78 39.57 42.09 40.63 40.85 38.77 33.43 33.10 33.60 34.50 36.73 39.17 35.90 31.61 28.18 28.31 29.69 27.01 26.37 30.52 31.38 29.09 25.82 19.45 21.08 25.15 30.80 31.04 32.49 31.90 29.66 34.06
50.06 49.58 48.70 48.13 48.12 48.56 49.06 47.88 47.33 47.56 48.02 44.05 46.75 50.62 48.61 42.00 42.62 40.41 39.26 38.36 40.39 35.54 33.03 30.45 32.65 33.72 37.12 30.95 29.45 26.87 29.88 31.90 28.04 25.71 24.81 23.74 20.74 22.08 21.57 19.89 27.93 32.08 32.30 32.79 27.94 32.36 32.72
50.62 49.88 48.99 48.19 48.23 48.64 48.73 47.93 47.23 47.02 47.41 44.54 46.72 48.16 48.21 43.85 43.30 42.28 41.81 38.84 37.41 35.91 34.37 33.76 33.60 33.26 30.88 28.88 30.41 31.15 30.48 31.89 28.67 28.41 26.40 26.74 22.97 21.10 21.73 21.12 26.35 32.33 31.70 31.84 35.46 32.56 33.10
51.23 49.98 49.09 48.20 48.23 48.29 48.60 47.95 47.33 46.75 46.72 46.33 45.38 47.86 47.59 45.00 44.13 41.90 40.51 39.70 39.12 38.42 37.13 34.18 34.99 33.12 34.94 30.93 31.08 32.71 31.74 29.38 30.24 28.33 26.23 26.80 31.08 27.87 29.42 31.48 34.84 32.79 34.63 33.84 34.25 34.62 32.17

GFSGBSN_sfc_wetblb_276.txt.gz
Wetbulb
63.42 62.93 63.32 63.66 63.72 63.47 62.65 62.12 61.83 61.09 59.91 60.86 61.42 61.22 61.23 61.28 60.91 61.31 61.75 61.95 62.44 62.87 62.77 62.39 62.55 62.40 51.49 43.37 43.59 49.99 63.98 62.28 56.49 55.00 51.36 51.03 46.75 44.01 40.09 39.32 38.99 35.50 35.15 36.59 36.76 36.31 34.60
63.78 63.09 63.16 63.38 63.39 63.43 63.07 62.16 61.67 61.01 60.48 60.02 60.75 60.93 60.82 60.36 60.42 60.57 61.26 61.62 61.76 62.36 61.74 62.07 62.37 61.33 45.70 40.32 48.35 49.40 52.24 52.36 52.17 50.89 48.53 49.47 46.77 44.77 40.31 37.56 36.82 35.23 35.25 34.70 35.55 34.68 34.59
63.96 63.62 63.14 63.22 63.27 63.27 63.20 62.61 61.65 60.94 60.53 60.37 60.03 60.25 60.21 60.25 60.06 60.41 60.82 60.98 61.24 61.32 61.44 62.03 61.99 54.51 44.71 43.71 48.23 48.16 51.81 49.61 50.43 51.16 48.18 47.72 47.71 44.57 40.78 36.24 37.87 36.40 33.02 32.93 32.34 33.73 32.74
64.43 63.93 63.30 62.92 62.97 63.03 63.07 62.83 62.05 61.06 60.42 60.37 59.82 59.68 59.66 59.89 59.81 59.81 60.41 60.37 60.33 60.61 61.45 61.97 59.01 45.66 42.10 48.53 48.03 49.03 48.97 47.75 50.07 50.63 48.32 47.35 46.95 42.81 39.97 38.83 37.28 33.64 32.19 28.83 32.33 34.06 33.11
64.76 64.30 63.73 63.05 62.95 62.84 62.91 62.99 62.30 61.35 60.62 60.21 60.09 59.36 59.30 59.50 59.44 59.62 59.73 59.95 60.58 61.45 62.07 61.47 46.76 43.27 40.34 53.99 46.77 46.47 47.70 46.87 47.26 48.49 48.78 50.61 45.31 39.89 38.96 34.95 31.89 31.88 27.94 28.53 31.20 34.32 32.88
64.42 64.09 63.59 63.16 63.02 62.87 62.83 62.86 62.49 61.56 60.83 60.18 60.09 59.61 59.05 58.94 59.29 59.33 58.81 59.52 60.50 58.97 56.51 52.31 48.65 42.32 44.06 43.32 45.87 46.60 46.28 48.00 46.72 46.01 45.25 43.96 38.69 34.54 33.02 32.10 27.63 27.15 27.48 28.65 29.39 32.14 30.82
62.91 63.19 63.38 63.42 63.21 63.05 62.88 62.76 62.39 61.62 60.91 60.37 59.84 59.33 58.80 58.77 58.95 58.61 55.36 49.88 48.14 45.73 46.77 43.14 42.55 42.10 43.79 45.16 46.53 45.25 45.41 45.36 45.41 43.46 37.51 38.75 36.86 32.31 30.96 32.58 31.88 31.03 29.09 28.62 30.12 33.02 30.37
61.35 61.37 61.61 61.76 62.30 63.12 62.97 62.66 62.12 61.62 61.04 60.56 60.00 59.21 58.61 58.41 57.80 57.27 51.80 48.44 46.94 48.17 42.79 45.99 44.91 44.43 45.79 45.17 42.44 43.37 45.72 41.38 41.16 37.13 37.45 36.89 32.51 34.07 36.14 34.90 32.84 31.50 28.90 27.62 29.83 32.82 30.22
60.03 60.05 60.01 60.31 60.97 62.25 63.00 62.31 61.70 61.28 61.01 60.62 60.05 59.02 58.48 57.96 57.17 52.08 48.58 48.72 52.10 48.61 41.80 44.21 45.27 44.24 44.30 45.39 41.20 40.79 43.98 41.18 38.19 35.41 34.26 33.35 34.02 38.11 36.49 32.34 31.86 29.21 27.29 26.37 26.95 29.33 29.45
58.61 59.11 59.22 59.47 60.15 61.52 62.67 61.93 61.28 60.99 60.63 60.09 59.61 58.76 58.21 56.95 51.07 47.26 49.21 52.73 52.38 47.55 36.48 38.89 42.34 44.07 45.38 45.11 40.84 44.34 43.53 42.35 38.95 34.57 34.05 32.83 35.30 35.50 33.49 32.30 31.11 26.87 31.21 31.43 30.48 26.73 23.97
57.41 58.25 58.00 58.24 59.35 60.43 62.18 61.32 61.02 60.82 60.19 59.52 59.27 58.42 57.41 55.94 47.35 49.03 50.96 51.44 50.70 46.48 28.37 41.05 42.62 46.91 44.45 42.36 41.68 42.11 43.93 42.48 37.15 35.70 35.13 32.38 32.61 32.14 32.28 32.03 31.83 29.45 32.72 31.17 30.50 25.28 23.71
55.48 56.17 57.83 57.02 58.05 58.88 59.56 60.81 60.76 60.34 60.13 59.64 59.16 58.14 56.53 50.87 46.26 49.36 50.49 50.11 47.24 36.30 29.82 38.99 42.68 41.09 40.40 41.09 40.28 42.28 40.87 42.75 39.96 36.54 34.46 32.03 35.03 32.84 31.28 33.36 32.87 33.79 31.12 30.13 27.64 25.22 22.69
53.30 54.36 56.87 55.88 56.31 57.70 58.51 59.33 60.19 60.54 60.30 59.58 58.41 57.43 54.53 52.41 46.05 48.78 49.81 45.90 35.33 29.93 40.39 38.14 38.68 40.98 39.00 37.56 37.79 38.53 36.56 34.94 34.12 29.89 29.20 31.33 31.63 33.09 33.74 30.90 31.86 30.67 25.91 23.73 24.80 22.99 23.77
52.74 53.54 55.08 55.32 54.64 55.29 56.86 57.95 58.80 59.85 59.78 58.75 56.89 55.01 52.72 52.64 48.28 48.71 47.11 41.79 28.87 36.20 37.00 41.45 40.48 39.44 37.94 38.94 36.32 36.75 34.84 33.34 33.03 33.46 30.06 29.33 28.70 30.64 31.93 28.90 28.16 26.30 26.56 24.25 23.86 22.10 22.20
52.52 52.73 53.66 54.33 54.32 54.04 54.87 56.12 57.53 58.78 59.33 57.30 54.38 46.47 45.41 48.10 49.26 47.82 42.81 32.90 33.96 37.12 41.05 39.84 39.57 35.65 35.61 38.20 36.77 34.41 33.31 33.28 34.30 34.76 31.58 29.35 28.73 30.95 31.80 30.44 30.08 26.79 25.37 26.12 23.05 20.19 20.47
52.24 52.04 52.03 52.53 52.75 53.01 53.72 54.66 55.89 57.03 57.96 54.97 48.52 44.33 44.97 47.99 48.55 45.93 38.76 36.09 36.71 41.70 41.63 40.31 36.22 37.36 34.49 35.86 35.47 33.32 33.05 34.55 34.87 34.24 34.49 31.86 27.98 29.80 31.35 31.59 30.42 27.59 30.34 25.72 24.04 20.10 21.04
52.03 51.38 51.31 51.42 51.85 52.36 52.57 53.46 54.45 55.61 56.05 53.14 43.97 42.77 46.57 46.69 47.62 42.26 35.41 35.24 39.56 43.62 43.04 39.78 37.72 36.96 36.38 36.24 36.36 33.36 33.12 34.54 35.60 34.18 32.69 31.21 30.31 26.59 29.21 28.26 27.81 26.42 25.01 24.18 24.08 22.14 18.76
51.67 51.05 50.89 50.91 51.14 51.30 52.04 52.12 53.28 54.42 53.89 48.81 42.26 39.71 46.45 46.72 39.57 34.96 35.27 38.93 44.27 42.24 41.90 41.24 40.00 39.70 38.20 37.33 35.16 33.71 34.27 34.11 36.28 35.58 32.57 31.28 29.29 26.74 26.33 27.71 29.56 27.12 26.06 26.45 23.13 20.79 16.68
51.30 50.41 49.93 50.13 50.54 50.56 50.99 51.69 52.37 53.26 52.94 44.14 40.26 39.83 46.57 46.03 35.09 33.84 37.07 40.58 42.11 41.22 40.92 40.33 39.43 40.88 39.43 37.60 34.74 35.74 35.15 36.24 36.50 34.70 32.93 32.90 28.66 25.18 24.45 26.00 28.12 25.81 26.65 25.93 24.21 22.06 17.80
50.38 49.84 49.52 50.26 50.29 49.69 50.06 50.97 51.61 52.53 53.63 44.80 40.38 37.59 40.73 40.17 37.69 36.45 36.02 37.61 38.82 41.33 41.56 40.86 39.35 39.84 37.45 36.20 36.99 35.64 35.12 35.60 35.58 36.10 42.68 37.59 28.44 28.73 27.06 28.20 28.56 25.53 26.93 26.45 25.66 18.42 19.83
50.11 49.72 49.24 50.26 50.73 49.64 49.50 49.71 50.70 52.31 52.94 47.22 42.42 37.77 37.82 34.67 36.62 36.78 36.61 37.39 37.52 38.14 39.67 39.91 37.33 39.52 38.90 34.62 34.73 35.72 33.99 32.58 33.74 40.14 33.13 33.14 28.95 26.96 28.93 30.60 29.62 29.38 28.35 25.90 23.83 25.27 27.01
50.03 49.64 49.31 49.90 50.89 49.70 49.04 49.27 49.63 51.18 52.23 47.89 42.78 38.27 38.66 36.16 38.22 36.22 36.96 36.22 38.51 38.53 38.86 37.15 37.24 39.30 38.06 37.01 38.15 37.10 35.34 32.98 33.92 31.20 31.09 30.50 29.03 27.00 27.89 28.08 28.90 28.39 29.73 27.83 27.37 25.44 25.49
50.13 49.61 49.32 49.60 50.45 49.53 48.88 48.80 49.12 49.88 51.24 49.49 46.59 42.28 40.68 37.64 35.26 34.73 35.46 37.64 39.15 38.82 39.72 39.35 39.08 37.59 35.78 38.86 37.67 35.08 35.98 35.18 34.75 32.71 30.22 29.62 28.72 26.27 25.18 27.10 28.29 27.48 28.40 28.23 26.08 26.05 29.69
50.45 49.90 49.37 49.19 49.82 49.12 48.15 48.49 48.67 50.40 50.62 49.44 48.80 42.64 38.75 35.38 36.35 36.32 37.90 38.67 39.07 39.04 37.81 36.46 37.02 37.04 35.43 36.16 36.69 36.61 35.04 33.51 33.38 31.03 32.07 28.18 27.74 25.18 22.94 25.53 23.09 31.80 29.16 30.62 30.70 30.59 29.56
50.90 50.13 49.45 49.22 48.93 48.98 48.32 48.45 48.75 48.42 49.39 48.15 49.16 46.39 42.05 33.74 37.49 37.98 38.79 37.85 35.50 34.61 34.42 34.87 34.29 34.24 34.54 36.07 32.41 30.96 30.94 31.20 29.18 29.53 29.70 31.13 28.32 21.86 24.45 23.02 29.94 32.17 28.42 29.46 29.25 32.49 33.78
51.44 50.71 49.82 49.22 48.68 48.59 48.04 48.68 48.40 48.19 48.40 46.89 48.47 50.30 46.21 41.76 38.76 40.94 39.72 39.70 37.81 34.79 34.55 33.20 33.51 35.89 38.47 33.65 29.70 27.33 28.01 30.70 27.49 26.04 30.80 30.48 29.04 26.06 20.45 21.92 25.24 31.94 30.48 31.70 30.73 29.14 33.06
52.40 50.79 50.03 49.32 48.74 48.55 49.05 48.94 48.14 47.51 47.69 43.74 45.97 49.91 48.12 41.89 41.95 41.32 39.21 38.51 38.59 35.01 34.32 29.67 32.28 33.08 35.73 27.76 26.51 25.87 29.20 31.39 29.14 26.97 24.80 25.00 22.87 22.38 22.03 21.50 28.13 33.19 31.83 32.18 27.57 32.39 31.45
52.63 51.62 50.48 49.45 48.84 48.69 49.27 48.87 48.02 47.37 47.16 44.45 44.27 48.06 47.28 43.36 43.54 43.26 41.08 38.26 36.78 35.80 34.57 32.96 33.84 32.86 29.21 26.86 27.72 29.35 28.23 30.09 28.67 29.36 27.16 27.33 25.10 22.11 21.94 21.25 26.69 31.98 31.51 31.71 35.57 33.48 32.05
52.67 52.20 51.18 49.69 48.85 48.59 49.13 48.74 48.01 47.46 46.47 46.41 44.50 47.87 47.60 44.78 42.59 44.30 41.64 40.48 38.57 39.16 36.68 31.81 35.29 33.01 33.30 29.60 28.81 29.68 29.56 27.43 29.23 28.67 27.58 27.88 31.92 28.83 29.90 31.33 34.90 32.47 34.01 34.35 33.84 34.55 33.02

GFSGBSN_sfc_wetblb_279.txt.gz
Wetbulb
63.71 63.23 63.16 63.43 63.63 63.72 63.43 62.76 62.03 61.60 60.75 60.81 61.24 61.31 61.26 61.03 60.80 60.95 61.79 61.78 62.11 62.82 62.66 62.41 62.55 62.11 53.72 47.59 47.07 50.76 63.39 64.21 56.19 55.75 53.37 53.27 50.49 47.21 43.34 42.14 41.61 39.20 38.25 38.17 38.23 37.87 36.75
64.41 63.83 63.32 63.24 63.37 63.49 63.48 63.05 62.31 61.43 61.28 60.74 60.73 61.01 61.09 60.63 60.27 60.17 60.63 61.48 61.83 62.08 61.68 61.99 62.43 60.94 49.63 44.91 49.73 50.59 51.84 52.21 52.64 52.53 50.82 52.23 49.42 47.15 42.06 39.11 40.02 37.95 37.45 37.16 37.57 37.15 37.31
64.94 63.98 63.50 63.30 63.20 63.24 63.26 63.13 62.62 61.65 61.18 61.33 60.82 60.62 60.47 60.53 60.38 60.35 60.57 60.84 61.11 61.38 61.27 61.86 62.05 54.87 47.94 46.57 50.02 50.22 51.68 50.37 50.58 52.69 49.62 49.57 49.02 47.03 43.09 38.50 39.40 38.85 36.83 37.31 36.79 37.23 36.15
64.95 64.33 64.03 63.41 63.19 63.05 62.97 62.99 62.73 61.94 61.35 60.81 60.73 60.45 60.11 60.02 60.03 60.29 60.49 60.44 60.37 60.74 61.37 62.10 60.35 49.47 45.16 49.51 49.74 49.91 51.07 49.91 51.88 50.96 49.01 48.34 48.11 44.19 42.22 41.32 39.64 37.48 37.41 35.48 36.73 37.01 35.45
64.91 64.45 64.08 63.43 62.96 62.96 63.00 62.98 62.67 61.99 61.57 61.18 60.52 60.10 59.85 59.86 59.62 59.88 60.02 60.10 60.55 61.32 61.93 61.26 50.50 47.82 43.95 54.99 48.31 48.32 50.20 48.46 49.50 50.39 50.40 49.79 46.84 42.33 42.15 39.20 36.77 36.50 35.38 34.46 35.98 36.81 35.34
64.19 63.83 63.48 63.23 63.19 63.08 63.03 63.06 62.63 61.96 61.51 61.26 60.91 60.06 59.58 59.44 59.44 59.39 59.08 59.50 60.07 58.61 55.60 52.90 48.54 45.53 46.28 44.83 47.22 47.51 48.79 49.70 48.18 48.62 48.09 45.79 41.56 39.23 38.24 37.40 34.04 33.77 34.18 33.94 34.58 35.70 34.34
62.10 62.34 62.71 62.73 62.60 62.92 63.18 63.02 62.52 61.86 61.31 61.00 60.74 60.08 59.25 59.20 59.10 58.68 55.23 50.44 48.67 47.10 48.43 45.07 44.69 44.16 44.63 46.40 47.70 46.21 47.11 47.66 48.28 45.40 42.32 42.32 41.01 38.84 37.97 37.64 37.10 35.96 34.50 33.92 35.49 35.59 34.11
60.69 60.58 60.65 60.68 60.82 61.59 62.32 63.02 62.31 61.77 61.29 60.91 60.66 60.09 59.23 58.74 57.76 57.44 51.54 48.22 47.29 48.27 44.15 46.53 45.71 45.47 46.52 46.37 43.94 44.80 47.35 44.72 44.70 40.96 42.45 40.57 38.25 38.70 37.57 37.72 36.83 36.34 34.51 33.64 34.53 35.04 34.01
59.00 59.44 59.50 59.41 59.89 60.59 61.42 62.56 61.96 61.44 61.22 60.89 60.44 59.82 59.23 58.26 57.12 51.64 49.23 49.65 52.28 49.62 42.69 44.38 45.79 45.27 45.74 46.56 42.82 42.68 45.42 43.61 41.51 39.36 39.06 38.14 39.19 38.98 38.28 36.13 35.82 34.83 33.68 32.90 32.60 33.22 33.77
57.60 57.97 58.65 58.65 59.34 60.17 61.22 62.31 61.47 61.10 60.89 60.32 59.90 59.42 59.01 57.45 51.10 48.00 49.74 51.99 51.85 48.78 36.70 39.37 42.88 45.15 46.43 46.23 42.62 45.50 45.27 44.27 40.79 37.77 37.48 37.97 38.13 37.31 36.74 35.66 35.03 33.90 34.81 34.60 33.61 32.34 30.99
56.64 56.83 57.74 57.42 58.04 59.18 59.56 60.53 61.26 60.68 59.97 59.70 59.54 58.92 58.09 55.84 47.52 48.64 50.71 50.53 50.88 45.88 29.49 41.15 42.77 47.69 45.46 43.79 42.99 43.53 45.13 44.43 39.25 37.72 39.45 36.22 35.44 35.21 35.74 35.12 35.02 34.09 36.08 34.92 33.87 30.88 30.61
53.66 54.69 56.25 56.47 56.62 57.25 58.29 59.26 59.99 60.70 59.72 59.53 59.24 58.50 57.23 51.11 47.01 48.25 49.03 50.19 46.97 36.64 29.81 39.27 42.74 41.30 41.64 42.51 42.09 43.67 42.79 43.43 41.68 38.33 37.04 35.59 37.58 36.26 35.38 35.23 34.91 35.62 34.44 32.92 31.09 30.58 29.76
52.59 53.18 54.98 56.26 54.75 55.39 55.85 57.75 58.72 59.84 59.94 59.08 58.51 57.96 54.92 52.56 46.49 48.26 48.70 45.78 36.14 30.84 39.69 37.63 38.81 40.77 39.60 39.05 39.65 40.38 39.22 37.81 36.38 33.42 33.13 35.08 35.16 35.96 35.83 34.65 36.05 34.66 31.89 30.49 31.52 29.80 30.28
52.60 52.86 53.63 54.88 53.87 54.14 54.63 55.81 57.22 58.15 59.42 58.68 57.15 56.01 51.42 52.43 49.93 48.89 47.10 41.22 29.51 36.13 36.69 41.11 39.98 39.22 37.62 39.17 38.04 38.66 37.41 35.75 36.49 35.85 32.32 32.31 31.50 34.09 34.57 33.71 33.43 32.76 32.56 30.54 28.37 27.80 28.43
52.55 52.39 52.94 53.39 53.42 52.99 53.58 54.48 55.40 56.36 57.74 57.03 54.58 47.91 45.75 47.50 48.66 47.32 43.12 33.26 34.22 36.17 40.81 39.66 39.21 35.97 35.82 38.43 37.70 36.99 36.18 35.40 36.31 36.97 34.17 31.79 32.65 33.36 33.33 33.41 34.07 32.71 31.21 32.01 27.52 26.21 26.72
52.61 52.29 51.87 52.06 52.40 52.50 52.30 53.46 54.56 55.20 55.66 54.93 49.26 44.44 45.24 47.32 47.97 45.45 39.29 36.36 36.73 40.42 41.52 40.49 36.75 37.73 34.92 36.14 36.19 35.26 35.16 36.39 36.60 36.25 36.58 34.63 30.85 32.25 33.35 34.50 32.99 32.92 32.79 30.72 29.24 26.73 26.87
52.71 52.48 51.69 51.29 51.22 51.66 52.17 52.24 53.55 54.51 54.96 53.27 44.00 43.07 46.20 46.32 47.24 42.39 35.95 35.76 39.31 42.43 42.70 40.04 37.99 37.01 36.58 36.49 36.58 34.87 35.46 36.31 37.10 35.84 36.11 34.41 33.18 29.90 33.06 31.27 30.92 30.19 29.68 27.90 28.86 27.45 27.50
52.52 52.19 51.61 51.16 50.71 50.92 50.90 51.55 52.22 53.37 54.11 48.56 42.04 41.24 46.25 46.18 39.56 34.91 35.58 38.71 43.58 42.10 42.05 41.66 40.34 39.86 37.81 37.09 35.70 34.87 36.12 36.19 37.24 36.91 34.67 34.56 32.18 29.12 30.52 31.42 32.82 31.62 30.51 30.29 29.79 26.27 22.34
52.39 52.06 51.36 50.52 50.32 50.33 50.22 50.96 51.68 52.21 53.41 43.65 40.64 39.99 46.19 45.62 35.47 34.09 36.72 39.86 41.60 41.20 41.03 40.55 40.03 41.07 39.45 37.50 35.37 36.13 36.25 38.05 37.93 36.24 34.75 35.55 31.58 28.98 28.64 30.66 31.84 30.34 30.49 29.08 27.51 26.81 23.20
52.17 51.87 51.29 50.12 50.25 50.18 49.78 49.86 50.73 51.56 53.17 46.06 40.01 38.45 40.46 39.84 37.69 36.76 36.32 37.54 38.71 41.64 41.84 40.98 39.47 40.19 38.36 36.47 36.82 35.99 35.82 37.10 37.29 37.44 42.52 38.68 31.12 32.02 30.31 31.48 31.56 29.12 28.74 28.82 30.30 27.01 27.05
51.53 51.40 50.80 50.06 50.24 50.58 49.76 49.41 49.85 51.33 52.39 47.63 42.18 37.97 37.48 34.82 36.08 36.06 36.91 37.38 37.30 38.01 39.91 40.12 37.76 39.83 39.11 35.41 35.25 35.74 35.22 33.69 35.52 41.37 35.03 35.19 31.50 29.90 30.91 31.50 31.45 32.09 30.56 27.77 26.34 30.02 32.48
51.23 51.04 50.78 50.13 49.88 51.00 49.79 48.87 49.02 49.73 51.76 48.09 40.40 37.93 38.23 35.62 37.03 36.25 37.19 36.42 37.82 38.31 38.94 37.36 37.69 39.35 38.50 37.56 38.86 37.11 35.65 34.24 35.33 33.78 33.66 32.37 31.58 29.97 30.72 30.98 30.78 30.16 31.14 29.48 29.71 28.80 28.31
51.34 50.87 50.66 50.18 49.79 51.12 49.94 48.76 48.57 49.02 51.18 49.43 46.37 41.93 40.90 37.09 35.03 34.93 35.21 37.38 38.50 39.50 39.91 39.18 39.30 37.95 36.43 38.65 38.36 36.60 36.15 35.18 36.19 34.22 31.96 31.61 30.60 29.08 28.93 29.34 29.97 29.29 30.51 30.18 28.86 29.04 32.17
52.48 51.27 50.52 50.23 49.87 50.73 49.58 48.90 48.33 49.61 50.55 49.24 49.02 43.66 40.64 34.86 35.69 36.44 38.32 38.06 38.55 38.92 37.73 36.55 37.33 37.64 36.48 36.36 36.43 36.73 34.41 33.23 33.58 31.78 33.07 29.68 29.98 28.34 27.54 29.23 25.63 34.93 32.46 32.71 32.11 32.39 31.52
53.06 52.04 50.73 50.30 49.89 50.13 49.74 48.77 48.44 49.18 49.66 48.04 49.50 46.96 42.45 34.54 36.96 37.65 38.33 37.94 35.06 35.21 35.21 36.43 35.07 35.60 36.03 36.71 33.08 31.62 31.53 31.70 29.87 30.94 31.50 32.38 30.33 26.01 27.48 26.43 31.74 35.56 31.25 31.20 31.96 35.14 35.16
53.32 52.59 51.04 50.51 49.86 49.49 49.45 48.97 48.58 49.03 48.96 46.98 48.40 50.09 46.57 39.96 38.98 40.71 38.92 39.11 36.79 35.21 35.26 33.52 34.56 34.98 37.78 33.77 30.90 28.48 28.66 30.87 28.36 27.69 31.56 31.42 31.04 29.67 24.21 24.81 26.89 34.76 33.23 33.92 33.69 32.17 35.30
53.28 53.13 52.44 50.83 50.05 49.33 49.08 48.67 48.87 48.78 48.25 43.51 46.06 50.34 48.31 42.41 42.25 41.29 39.44 38.63 40.10 36.82 36.05 31.06 33.07 33.50 35.59 28.63 27.99 27.50 30.24 32.29 29.12 27.89 26.17 26.99 27.32 26.49 25.16 25.46 30.07 35.53 33.78 33.87 30.57 35.64 35.42
53.37 53.16 52.85 51.93 50.50 49.39 49.05 49.14 49.10 48.43 48.01 43.88 42.63 48.57 47.97 43.87 42.11 41.86 40.97 37.80 36.33 36.69 36.65 34.89 34.87 33.58 30.32 28.17 28.69 29.51 28.98 30.87 29.20 29.49 28.24 28.79 26.68 26.21 24.78 23.77 27.71 33.75 33.33 34.19 37.95 35.69 36.35
53.39 53.14 52.83 52.09 50.92 49.76 49.14 49.28 49.09 48.34 47.52 46.90 42.47 47.96 48.06 45.33 41.91 43.72 42.83 40.48 40.52 41.82 38.85 33.86 36.96 34.03 34.02 30.72 29.17 29.85 30.10 28.13 30.01 29.11 27.67 28.38 33.86 30.95 32.21 32.83 36.80 34.23 36.42 36.21 36.05 36.14 36.64

GFSGBSN_sfc_wetblb_285.txt.gz
Wetbulb
64.08 62.93 62.60 63.07 63.29 63.51 63.50 63.32 62.79 62.47 62.01 62.02 62.04 61.87 61.91 61.83 61.34 61.12 61.72 61.96 62.11 62.92 62.89 62.64 62.99 63.22 60.01 54.04 52.33 58.07 66.11 65.55 60.33 60.26 59.57 58.52 56.27 54.98 52.04 50.69 50.11 48.62 46.73 46.60 46.40 46.27 46.95
64.97 63.78 62.71 62.60 63.04 63.21 63.22 63.12 62.78 62.50 62.33 62.32 62.17 61.81 61.84 61.51 61.19 60.80 61.23 61.77 61.69 62.27 62.21 62.35 63.02 61.47 56.09 50.62 55.76 57.84 57.76 57.79 58.18 57.93 57.33 58.28 56.34 56.32 52.08 48.75 48.57 48.47 47.32 46.01 46.25 45.52 45.36
64.66 64.65 63.25 62.58 62.63 63.00 62.94 62.93 62.72 62.41 62.33 62.43 62.52 62.20 61.73 61.39 61.00 60.90 61.19 61.36 61.23 61.55 61.75 62.06 62.85 58.99 53.22 51.39 55.90 57.95 57.86 56.96 58.10 58.05 55.75 57.34 56.80 54.41 52.36 47.18 48.89 48.08 44.89 45.32 45.31 45.65 44.29
64.34 65.02 63.80 62.99 62.55 62.79 62.86 62.91 62.69 62.34 62.17 62.31 62.26 62.03 61.78 61.38 60.91 60.81 60.93 60.85 60.83 61.11 61.87 62.43 61.48 54.72 51.35 54.91 57.01 55.08 56.96 56.34 57.54 58.19 56.51 56.28 56.27 52.60 50.88 49.89 47.62 46.09 46.89 44.72 45.40 44.99 43.36
64.34 64.93 63.97 63.17 62.59 62.73 62.98 63.07 62.81 62.33 62.04 62.08 61.89 61.58 61.34 61.23 60.89 60.82 60.41 60.32 60.89 61.52 61.92 61.30 55.89 53.41 49.93 56.69 53.02 54.58 55.81 54.21 55.30 55.31 54.75 54.40 54.25 50.68 49.49 47.85 46.19 46.25 43.64 43.57 43.59 45.49 43.99
63.91 63.90 63.46 63.21 62.74 62.58 62.80 63.07 62.98 62.34 61.87 61.77 61.56 61.07 60.77 60.56 60.62 60.43 59.66 59.79 61.04 58.69 60.02 56.67 53.96 51.26 51.21 50.34 52.60 53.07 55.36 55.46 53.36 53.25 52.69 52.50 51.94 49.98 49.26 47.37 42.30 42.50 42.77 43.20 42.73 44.09 42.88
61.50 61.41 61.21 60.77 60.66 60.79 60.96 61.39 62.49 62.44 61.64 61.47 61.25 60.73 60.21 60.29 60.34 59.58 59.83 58.54 56.06 54.15 54.46 52.10 51.26 50.11 50.32 52.32 53.28 52.05 53.28 52.87 52.97 51.67 48.77 50.81 47.84 46.77 46.81 46.01 44.83 43.72 42.75 42.36 43.97 43.83 41.97
60.32 60.00 59.69 59.70 60.06 60.47 61.00 61.51 61.71 62.36 61.63 61.24 61.00 60.47 59.90 59.75 59.25 58.17 58.53 56.50 54.83 55.61 51.79 52.82 51.65 51.16 51.79 52.61 49.03 50.48 53.01 49.64 49.35 47.41 49.17 48.11 46.27 46.20 45.32 44.44 43.51 43.31 42.44 43.09 42.91 42.35 41.01
58.57 58.90 58.49 58.33 58.81 59.63 60.18 60.71 61.85 61.82 61.24 60.47 60.43 59.98 59.57 59.31 58.27 59.70 58.77 56.40 59.47 58.02 51.29 50.17 51.40 51.03 50.69 51.36 49.18 49.03 50.90 50.00 48.33 47.21 47.31 45.75 45.37 44.78 43.86 43.83 42.77 43.91 41.75 41.50 39.89 41.63 42.71
56.79 56.95 57.59 57.21 57.89 58.31 58.92 59.53 61.27 61.43 60.90 59.75 59.57 59.39 59.25 58.49 58.10 58.43 57.34 58.36 60.09 58.95 47.38 46.69 48.19 50.04 50.80 51.09 47.98 50.24 51.12 50.11 47.70 45.77 45.92 45.47 44.78 43.43 43.37 43.06 42.65 41.41 41.35 40.33 40.06 40.27 40.52
55.53 55.86 56.41 56.13 56.09 56.78 56.94 57.56 58.88 59.74 60.12 59.47 59.00 58.74 58.49 57.48 56.99 57.25 57.32 59.16 60.53 56.73 39.60 46.53 47.79 52.91 50.92 48.70 48.52 48.24 50.95 49.79 46.72 45.81 45.83 42.89 42.50 42.13 42.25 42.11 41.92 41.02 41.39 40.98 41.13 40.38 41.02
53.86 53.58 54.71 56.40 54.64 55.41 55.85 55.97 57.17 58.32 59.13 58.91 58.64 58.39 57.65 60.37 59.39 57.67 59.00 59.25 57.55 46.23 39.05 44.79 48.14 47.25 47.05 48.21 47.89 48.63 48.71 50.28 48.82 45.70 45.75 43.85 43.92 42.87 42.44 41.27 41.06 42.20 41.45 42.21 41.87 41.77 38.64
53.20 53.09 53.36 55.14 54.48 53.97 54.83 55.32 55.67 56.34 57.42 57.65 57.75 57.81 57.82 60.75 56.54 59.04 58.92 56.45 46.17 41.42 46.59 44.26 45.40 46.74 46.87 46.15 46.38 46.72 46.19 45.56 44.51 41.44 42.25 42.54 42.18 41.62 41.67 40.60 41.89 41.15 41.65 40.30 39.51 38.69 39.25
53.28 53.42 53.23 53.45 54.58 53.23 52.94 53.99 54.82 55.43 56.15 55.99 56.18 56.09 59.76 60.09 59.99 58.65 57.20 50.31 41.40 44.73 44.85 47.35 46.48 46.21 44.86 46.41 45.79 45.66 45.19 44.23 46.37 44.72 42.69 41.49 39.17 40.93 40.96 40.71 39.46 41.23 40.58 38.76 34.18 37.36 38.82
53.67 53.43 53.32 53.04 53.49 53.18 53.18 53.02 53.69 55.01 55.54 55.59 54.53 61.65 60.22 58.84 58.07 57.89 53.32 44.79 44.79 46.36 47.19 45.96 45.58 44.25 44.78 45.37 44.87 45.01 45.44 45.43 45.80 45.88 42.04 41.46 39.64 39.70 39.35 39.90 39.88 40.05 39.53 40.73 38.76 39.29 36.82
53.82 53.47 53.41 52.91 52.43 52.06 52.04 52.74 52.99 53.86 54.81 54.78 58.42 59.52 58.79 57.01 58.07 55.51 50.25 45.13 47.12 48.12 48.09 47.67 44.41 46.04 43.83 45.20 43.82 44.69 45.66 45.91 44.64 44.59 45.94 44.06 39.29 39.59 38.81 39.81 39.99 39.19 40.65 38.52 39.81 34.96 34.95
53.99 53.65 53.64 53.11 52.41 51.83 51.64 51.59 52.10 53.12 54.16 54.46 56.47 55.12 54.99 57.11 56.90 52.17 45.52 47.09 48.75 49.12 49.52 47.25 46.34 45.42 45.89 44.94 45.68 45.01 44.95 44.26 44.98 43.60 45.26 44.77 42.03 38.38 39.21 38.62 40.49 38.16 38.82 38.36 38.88 39.06 36.49
54.29 53.73 53.79 53.42 52.40 51.66 51.32 50.80 51.81 52.55 53.26 52.89 56.68 49.88 55.88 56.45 49.21 50.12 47.16 48.82 47.22 49.03 49.68 48.86 48.24 47.47 46.35 46.33 45.51 45.38 44.89 45.68 45.65 45.65 42.67 45.03 43.53 39.75 39.81 39.39 39.71 39.57 39.91 40.59 38.16 38.38 38.22
54.48 54.06 53.76 53.55 52.52 51.51 51.17 50.29 50.69 51.84 52.81 56.78 53.59 54.12 55.90 54.86 46.96 47.70 48.96 47.18 48.23 48.20 48.37 47.87 47.04 48.62 48.71 46.35 43.99 46.67 45.67 44.28 44.43 44.51 43.91 44.49 42.24 38.66 37.06 37.96 38.98 37.77 39.99 40.09 40.07 39.51 37.82
55.11 54.57 53.82 53.66 53.00 51.86 51.23 50.27 49.98 51.12 52.72 54.73 53.28 47.56 51.43 51.56 52.94 49.22 48.03 46.74 45.79 49.56 48.95 49.35 48.11 48.78 47.11 45.97 47.75 45.40 45.09 43.54 43.85 43.90 43.39 44.63 43.63 41.65 39.06 40.67 42.17 37.77 38.05 38.59 39.43 38.00 39.74
55.53 55.07 54.41 53.70 53.53 51.94 51.49 50.52 50.09 50.32 51.60 53.59 52.49 49.40 50.50 46.25 47.86 48.52 49.15 47.41 46.40 45.53 48.31 49.26 47.12 47.12 46.20 44.08 45.38 44.42 46.77 43.04 42.71 45.18 43.71 44.26 41.55 43.93 43.47 43.04 40.65 40.19 40.36 37.92 36.03 39.67 38.56
55.57 55.01 55.03 54.39 53.83 52.20 51.78 50.91 50.21 49.77 51.04 53.12 50.80 49.02 50.00 48.83 47.11 48.23 46.37 45.97 45.89 47.16 47.74 45.71 45.46 47.43 47.36 45.27 46.42 44.80 46.85 46.51 45.84 44.08 43.48 44.42 41.53 41.59 40.77 43.23 41.37 38.24 40.19 40.20 39.33 38.98 39.46
55.61 54.93 54.60 54.49 53.90 52.55 52.21 51.31 50.23 49.96 50.90 52.63 55.36 52.59 50.01 46.64 46.76 45.60 46.12 46.47 46.71 48.35 48.86 49.21 48.12 47.26 46.25 47.78 49.82 49.87 49.57 48.36 48.50 45.74 43.57 43.26 42.28 40.35 38.42 40.45 39.34 37.43 40.05 40.68 41.01 41.70 41.08
55.75 54.84 54.25 54.29 53.77 52.64 52.36 51.56 50.29 50.02 50.52 52.94 54.51 54.04 48.66 44.89 45.88 45.53 46.06 47.12 46.63 47.82 46.52 48.15 47.78 47.12 47.18 48.66 48.34 47.69 46.71 45.73 46.19 45.36 47.26 43.33 42.94 42.43 38.98 41.65 32.56 43.65 42.57 41.74 43.08 43.10 43.69
55.94 55.05 54.17 54.04 53.73 52.65 52.20 51.85 50.77 49.76 50.16 52.10 53.85 52.33 50.19 45.55 47.64 46.45 46.47 45.92 47.03 48.12 46.90 47.49 45.36 45.62 48.59 47.02 44.88 41.81 41.97 41.86 42.55 42.92 42.34 44.14 43.81 40.91 37.50 37.67 41.67 43.65 42.62 39.06 39.31 42.10 44.49
56.11 55.37 54.44 53.84 53.41 52.62 51.89 52.34 51.06 49.85 50.95 50.17 52.77 53.74 52.12 46.51 45.56 48.20 46.53 47.33 45.18 45.27 45.75 45.43 43.85 46.38 46.39 45.87 44.25 39.47 38.12 41.24 39.79 36.92 40.19 41.04 42.07 41.73 38.81 36.04 33.32 41.69 40.86 42.26 42.04 39.13 44.60
56.11 55.45 54.71 53.95 53.18 52.63 52.07 52.49 51.48 50.57 50.84 49.06 48.74 53.92 52.36 47.27 48.69 48.74 45.66 46.08 48.97 47.75 45.64 44.89 41.81 41.87 44.95 44.16 41.87 39.99 39.71 44.73 39.19 37.68 34.92 36.50 38.25 36.27 37.45 37.48 40.69 46.75 42.07 42.45 37.55 41.20 44.74
56.39 55.70 54.82 53.99 53.12 52.59 52.16 52.43 51.62 50.83 50.03 49.09 46.70 52.67 50.62 48.26 49.03 48.95 49.80 47.55 48.19 47.91 44.68 44.10 42.47 41.99 41.02 41.00 42.13 41.80 41.39 43.61 41.95 43.66 39.28 37.54 36.36 35.55 38.18 37.54 33.49 43.69 40.35 40.18 45.68 45.91 45.08
56.96 55.88 54.83 53.92 53.03 52.38 52.03 52.04 51.80 50.95 50.09 49.46 43.68 50.01 51.15 47.63 47.98 50.74 51.07 51.09 48.44 46.77 48.16 46.65 46.73 45.29 46.37 42.82 44.47 45.07 42.48 43.55 43.02 38.30 44.92 39.34 43.39 42.20 42.12 41.22 46.75 44.96 46.27 46.96 44.43 43.90 46.11

GFSGBSN_sfc_wetblb_288.txt.gz
Wetbulb
64.73 63.74 62.57 62.89 63.25 63.38 63.37 63.19 62.94 62.86 62.76 63.00 62.81 62.48 62.48 62.29 61.80 61.66 61.85 62.06 62.24 62.93 63.08 62.58 62.82 63.56 59.14 53.99 51.31 57.88 67.45 65.17 60.89 59.32 59.01 58.13 55.53 56.02 52.12 50.27 50.19 47.19 45.85 46.69 46.55 47.17 46.42
64.59 64.74 63.25 62.57 62.93 63.21 63.14 63.07 62.77 62.63 62.62 62.76 62.91 62.79 62.59 62.23 61.79 61.41 61.64 61.89 61.80 62.44 62.40 62.40 63.16 61.98 56.62 50.29 56.21 57.65 57.58 58.00 57.86 57.83 58.22 57.85 55.94 55.20 51.05 48.57 47.31 47.90 46.66 45.41 46.27 45.42 45.91
63.80 64.82 64.09 63.00 62.58 62.98 63.02 63.01 62.79 62.52 62.58 62.71 62.69 62.56 62.27 62.06 61.83 61.68 61.68 61.61 61.45 61.63 61.85 62.59 62.95 58.67 53.05 50.01 55.84 57.17 57.80 56.95 58.77 58.69 57.35 56.98 56.72 54.48 52.18 46.97 49.60 47.00 43.15 43.99 43.97 44.73 43.97
63.23 64.37 64.65 63.51 62.61 62.72 62.93 63.07 63.02 62.57 62.36 62.45 62.40 62.23 62.06 61.69 61.44 61.56 61.63 61.16 61.00 61.19 61.86 62.77 62.11 55.26 50.60 55.46 55.91 55.46 57.72 55.98 57.70 57.86 56.59 56.65 56.25 52.99 51.60 49.00 47.59 44.46 44.66 40.74 43.54 44.29 42.35
64.23 64.22 64.68 63.70 62.77 62.74 63.18 63.28 63.26 62.67 62.32 62.24 62.11 61.74 61.60 61.26 61.02 61.22 61.06 60.67 61.17 62.00 61.73 61.78 55.80 53.28 49.20 57.56 52.81 54.95 55.90 54.24 55.07 55.03 55.93 54.74 55.85 50.69 49.15 45.19 42.74 43.62 39.25 41.99 41.22 44.82 42.61
63.69 64.13 63.84 63.16 62.72 62.30 62.15 62.12 62.62 62.84 62.22 61.95 61.77 61.19 60.78 60.51 60.63 60.73 60.00 59.46 61.59 59.68 58.58 58.38 54.96 50.87 51.10 50.13 53.07 53.93 55.45 56.73 54.13 54.21 52.82 52.14 50.74 47.04 46.10 43.98 37.45 38.83 39.04 40.49 39.99 41.78 41.58
61.51 61.59 61.16 60.56 60.48 60.84 61.08 61.51 61.84 62.32 62.01 61.62 61.12 60.62 60.07 60.10 60.26 60.00 58.89 57.31 54.40 53.43 54.65 52.18 51.33 50.16 50.37 52.10 53.49 51.91 53.85 53.10 52.78 51.21 46.38 50.49 44.85 43.16 43.34 44.02 43.31 41.99 40.68 40.12 41.65 43.27 39.74
60.15 59.81 59.58 59.57 59.71 59.94 60.38 60.78 61.25 62.10 61.91 60.98 60.48 60.19 59.71 59.62 59.27 58.62 56.74 56.60 54.96 56.11 51.33 54.42 52.18 51.30 52.55 53.01 49.07 50.49 53.19 49.20 49.89 45.93 49.32 46.29 42.76 44.33 45.73 44.85 43.23 42.19 40.16 39.33 40.72 42.49 38.41
58.51 58.59 58.23 57.99 58.42 59.11 59.49 59.85 60.48 62.16 61.64 60.57 60.11 59.70 59.44 59.26 58.59 58.57 57.97 56.17 59.61 59.22 50.37 50.66 52.44 51.53 50.93 51.41 49.64 48.65 51.18 50.47 47.47 45.64 45.90 42.99 43.90 46.19 44.81 43.60 42.54 41.88 39.37 38.29 37.68 40.54 40.55
56.98 56.86 57.51 57.00 57.13 57.62 57.94 58.07 58.95 60.13 60.92 60.59 59.61 59.12 59.17 58.55 57.70 58.34 56.65 58.65 60.07 59.88 45.60 46.18 47.93 50.03 50.83 52.83 48.51 51.15 51.89 50.43 48.02 44.63 45.48 43.58 45.04 44.31 43.20 42.61 42.14 38.30 40.85 40.57 40.12 37.56 33.60
56.03 55.96 56.12 56.70 55.49 56.16 56.56 56.62 57.14 58.07 58.80 59.17 58.92 58.59 58.25 57.60 56.86 56.49 57.03 59.43 59.96 57.09 37.52 47.35 47.65 53.02 51.39 48.77 48.30 48.25 51.92 50.00 45.50 46.15 45.09 41.72 42.21 42.06 41.82 40.92 41.73 39.79 41.90 39.88 39.82 36.39 35.52
55.28 54.47 53.89 55.79 54.74 54.75 55.04 55.29 55.72 56.22 56.72 57.28 57.75 57.88 57.69 59.60 59.35 58.00 59.07 59.37 57.19 44.71 37.84 44.27 47.90 46.90 46.28 48.28 47.89 48.83 49.07 50.71 49.17 46.14 45.00 42.15 44.03 42.49 40.87 42.19 41.48 42.30 39.49 39.81 39.10 35.79 30.98
54.35 53.45 53.21 53.62 55.51 53.82 53.77 54.39 55.04 55.56 56.09 56.63 56.06 56.69 56.36 59.43 56.29 59.37 58.67 55.88 44.95 39.33 47.14 43.40 45.09 46.61 46.24 45.80 46.25 46.39 45.32 43.68 42.19 38.88 39.20 41.72 41.11 40.66 42.12 39.41 41.28 39.73 35.55 32.12 31.45 29.65 31.95
53.71 53.46 53.48 53.30 54.30 54.48 53.57 53.53 53.72 54.98 55.63 55.79 55.68 55.59 58.85 60.58 61.37 58.55 56.37 49.39 39.82 45.57 45.02 48.56 47.72 46.78 44.41 46.57 45.74 45.68 44.53 42.10 45.51 43.68 40.25 38.46 35.48 39.64 41.02 38.88 36.21 38.11 35.84 31.72 26.10 28.23 30.75
54.62 53.96 53.79 53.46 53.29 54.20 53.62 53.51 53.51 53.83 54.91 55.08 54.49 58.88 59.62 60.62 58.88 56.71 51.67 42.39 44.11 46.80 47.53 46.10 46.16 43.82 43.94 45.89 44.44 44.37 43.29 43.17 44.62 44.18 39.18 38.92 36.28 38.79 39.51 39.29 38.42 37.52 34.27 36.59 33.13 33.97 29.59
54.82 54.28 53.88 53.69 53.11 52.81 52.13 52.01 52.50 53.26 54.21 54.59 55.71 58.93 59.17 57.54 58.27 54.81 48.11 43.77 47.49 48.91 48.83 48.81 43.42 45.73 43.83 43.88 42.23 43.14 44.00 44.73 44.40 43.95 44.10 40.93 35.68 38.84 38.00 38.50 38.53 35.82 38.32 33.04 33.06 28.21 26.89
55.05 54.51 54.02 53.94 53.33 52.65 51.95 51.72 51.76 52.65 53.62 53.91 54.53 53.72 54.95 57.88 56.51 50.66 43.26 45.38 48.67 49.80 50.30 47.37 46.20 45.95 45.41 45.17 44.31 43.63 44.12 43.15 44.90 43.26 43.07 41.78 38.98 34.91 37.60 35.56 36.25 34.44 34.42 34.65 34.49 33.00 27.41
55.44 54.81 54.25 54.06 53.69 52.83 52.19 51.37 51.13 52.29 52.84 52.81 55.84 47.68 55.69 56.12 47.00 48.12 44.46 47.91 47.39 49.98 50.43 48.75 48.20 47.46 45.89 46.21 44.54 44.23 44.93 44.48 45.08 44.61 41.03 41.96 40.10 35.47 35.57 37.04 38.05 36.00 35.82 36.93 31.16 31.13 30.27
56.54 55.40 54.58 54.20 54.24 53.32 52.09 51.40 50.63 51.55 52.29 54.69 52.30 52.15 55.39 54.15 44.61 45.17 48.61 48.36 48.91 48.37 48.12 47.69 46.82 48.38 48.38 45.59 42.54 45.46 45.20 45.20 44.89 43.95 42.14 41.57 37.74 33.41 30.87 33.27 35.65 33.55 36.62 36.79 36.72 33.99 30.45
56.87 56.29 55.26 54.75 54.54 53.47 52.61 51.54 50.55 50.89 52.46 52.51 52.45 46.59 49.92 50.01 50.03 47.46 47.05 46.76 45.96 48.98 48.05 48.92 47.55 48.08 46.19 44.53 45.98 44.48 44.56 44.14 44.17 44.29 46.74 44.70 39.98 37.60 33.46 35.47 38.07 32.41 34.98 35.37 35.48 29.32 30.90
56.88 56.49 55.88 55.25 54.67 53.74 52.61 51.67 50.69 50.80 52.05 52.24 51.84 48.49 49.75 44.22 45.91 47.35 47.78 47.56 46.29 45.30 47.82 48.40 46.17 46.34 45.18 41.88 43.49 43.43 45.43 41.93 42.72 45.90 41.41 41.03 37.20 39.61 40.79 40.55 39.09 37.80 37.83 35.29 31.35 35.84 31.96
56.91 56.47 56.05 55.62 54.73 54.09 52.71 51.88 51.07 51.00 51.58 52.47 50.42 48.20 49.33 47.68 47.86 46.79 45.58 45.06 45.23 46.56 47.12 44.85 44.32 46.71 46.02 43.14 44.48 43.41 45.07 43.73 42.57 41.60 40.66 40.99 37.13 38.01 36.89 40.76 40.18 37.01 38.28 37.67 36.21 35.97 36.13
57.03 56.41 55.86 55.56 54.86 54.29 52.83 52.48 51.76 51.17 50.51 52.51 54.86 53.55 50.01 47.13 45.67 44.84 45.28 45.70 45.84 47.37 48.25 49.05 47.85 45.87 44.89 46.52 46.69 45.57 46.03 45.68 45.19 42.29 40.07 39.46 37.38 36.11 32.43 38.23 36.11 32.95 37.15 37.78 37.16 38.01 37.37
57.21 56.37 55.68 55.44 55.00 54.31 53.18 52.84 52.11 51.26 50.13 53.02 55.25 53.41 47.46 44.19 45.42 44.47 45.95 47.01 46.58 47.13 45.73 48.11 48.03 45.22 45.51 47.42 46.88 46.05 44.54 44.26 44.04 43.96 44.88 40.04 38.27 36.30 31.76 35.01 27.29 39.29 40.24 40.14 39.74 40.78 40.09
57.55 56.69 55.72 55.34 55.01 54.29 53.47 53.00 52.14 51.60 50.52 48.96 54.52 52.66 49.85 44.87 46.35 45.83 45.96 45.97 46.37 46.53 45.91 46.86 45.75 44.07 46.80 45.02 41.71 39.52 38.95 39.22 41.01 42.60 41.14 41.22 39.53 34.00 31.33 31.04 37.46 40.57 40.95 36.92 35.99 38.21 42.27
57.85 57.22 56.24 55.38 54.81 54.10 53.33 52.72 52.80 51.91 50.77 47.50 51.72 54.36 51.20 45.79 44.41 48.04 45.93 46.39 43.39 43.45 43.88 45.69 43.44 44.49 44.87 43.28 40.41 34.85 33.61 38.13 36.02 34.86 39.13 39.55 38.45 34.88 31.43 28.92 28.12 37.03 37.74 39.34 38.43 32.45 40.93
57.86 57.36 56.58 55.70 54.74 54.07 53.63 52.71 52.93 52.06 50.89 47.18 48.23 54.04 50.96 46.76 47.79 48.01 44.45 44.33 47.26 45.30 43.03 44.29 40.08 39.91 42.93 40.42 37.67 35.68 35.72 41.75 35.37 34.07 30.24 30.63 30.63 29.75 31.48 30.29 36.64 41.92 39.05 39.26 30.58 34.74 40.96
57.27 57.69 56.73 55.76 54.74 53.99 53.67 52.86 52.72 52.23 51.23 48.06 45.96 51.45 51.15 47.91 47.55 48.91 49.49 46.80 46.54 46.56 42.47 41.08 39.95 40.14 38.35 37.62 38.02 37.98 37.32 39.84 39.43 40.44 34.37 32.57 31.11 29.01 30.05 28.89 29.53 39.85 36.86 35.63 40.16 39.31 41.56
57.13 57.61 56.69 55.77 54.70 53.91 53.47 52.75 52.60 52.43 51.45 50.19 42.95 48.66 52.18 47.81 46.97 50.03 50.34 51.05 48.93 45.52 46.17 43.31 44.31 40.94 41.97 39.06 40.27 40.66 38.27 39.38 38.95 35.10 40.38 33.83 39.17 35.59 36.31 36.18 42.60 40.38 40.11 41.53 41.01 40.73 39.61

GFSGBSN_sfc_wetblb_291.txt.gz
Wetbulb
65.26 64.83 63.64 63.26 63.24 63.31 63.29 63.30 62.94 62.97 62.81 63.21 63.20 63.08 62.94 62.65 62.37 62.02 62.08 62.22 62.27 62.79 63.12 62.73 62.99 63.24 55.56 50.05 48.22 55.13 66.28 64.02 58.39 57.23 56.04 55.47 51.71 50.21 46.23 45.43 45.45 41.82 42.16 44.26 44.37 44.72 43.52
63.69 64.81 64.39 63.39 63.26 63.33 63.20 63.23 62.90 62.76 62.79 62.81 62.97 62.92 62.81 62.39 62.11 62.01 62.08 62.03 61.94 62.31 62.28 62.30 62.93 62.25 52.81 45.37 52.77 55.14 55.76 55.77 56.40 55.57 54.13 53.97 51.38 50.06 46.09 44.18 43.07 43.39 43.20 42.69 43.61 43.01 43.42
62.64 63.87 65.03 63.79 63.34 63.16 63.16 63.27 62.99 62.66 62.68 62.83 62.69 62.61 62.43 62.11 61.84 61.81 62.01 62.03 61.57 61.65 61.77 62.21 62.70 58.82 49.38 47.16 52.32 52.35 56.02 54.49 56.04 56.75 53.66 52.94 52.43 50.01 46.91 42.62 46.00 43.59 39.45 39.93 40.96 41.89 40.90
62.58 63.12 64.62 64.24 63.60 63.18 63.27 63.42 63.11 62.57 62.54 62.49 62.52 62.21 61.84 61.51 61.33 61.57 61.76 61.48 61.13 61.06 61.72 62.39 61.86 50.75 44.75 52.45 51.69 53.26 54.38 53.44 54.78 54.60 53.94 52.90 52.62 49.24 46.48 44.74 43.84 40.00 39.38 34.97 39.87 41.66 39.87
63.01 64.33 64.47 64.30 63.72 63.20 63.24 62.98 62.80 62.61 62.36 62.30 62.10 61.54 61.26 61.13 60.88 61.17 61.12 60.87 60.97 61.75 61.90 61.63 51.14 46.51 43.86 55.74 50.25 51.51 52.29 52.61 52.76 52.49 52.09 53.76 51.86 45.49 44.47 40.16 36.77 37.43 33.15 36.49 37.54 42.01 39.26
62.90 64.33 64.41 63.55 62.57 61.98 61.74 61.72 61.99 61.71 62.12 62.06 61.53 60.82 60.54 60.36 60.54 60.61 60.27 60.38 61.20 59.93 57.38 57.86 55.27 45.40 47.41 47.36 50.06 50.85 50.78 53.81 51.55 51.82 50.65 48.77 45.88 41.88 40.43 37.78 32.36 32.87 33.06 35.40 35.76 39.02 38.77
61.64 61.80 61.32 60.72 60.58 60.69 60.76 60.74 61.38 61.46 61.61 61.43 60.77 60.27 59.82 59.96 60.15 59.95 55.91 53.93 50.44 49.04 51.31 46.97 46.78 46.99 48.15 48.71 50.25 47.98 50.21 50.30 50.20 47.45 41.65 46.01 39.92 36.78 37.08 39.25 39.25 37.56 35.50 34.32 36.71 40.47 37.08
60.21 59.95 59.75 59.66 59.53 59.63 59.88 60.16 59.91 61.39 61.63 60.96 60.46 60.10 59.50 59.43 59.23 58.56 54.01 52.07 50.92 51.61 46.77 51.61 49.60 48.80 50.14 49.14 46.18 46.98 49.16 44.66 45.27 41.55 43.52 41.39 37.86 40.68 43.27 42.03 40.41 38.65 35.47 34.48 37.06 40.36 36.26
59.00 58.66 58.22 58.11 58.31 58.57 58.65 58.38 58.65 59.90 60.76 60.78 60.37 59.48 59.17 59.05 58.34 55.86 52.81 52.38 55.47 54.64 44.84 49.07 50.25 48.80 48.47 48.53 46.18 44.73 47.26 45.44 42.44 41.02 41.18 38.33 40.80 44.64 43.19 40.18 39.50 36.81 34.98 34.02 33.96 37.56 36.91
57.14 56.95 57.21 56.76 56.48 56.73 57.28 57.37 57.67 58.24 58.72 59.02 59.03 58.74 58.84 58.12 54.46 53.45 52.17 55.26 55.55 54.02 39.15 43.51 46.29 47.79 49.05 49.82 45.60 48.77 48.61 46.63 43.10 39.47 40.90 38.74 42.22 42.24 40.37 39.92 38.97 34.06 37.99 38.35 38.03 34.27 30.13
56.73 56.28 56.03 56.40 55.25 55.42 55.75 56.11 56.27 56.77 56.98 56.78 57.40 57.47 57.75 57.59 53.67 51.80 53.79 54.84 54.06 50.64 31.35 45.45 45.97 50.74 48.23 46.26 45.85 46.16 48.65 45.95 41.15 41.49 39.67 37.05 38.36 38.53 38.87 38.80 38.98 36.79 39.52 36.99 37.04 32.47 30.37
56.64 55.78 54.55 55.02 55.62 54.52 54.46 54.85 55.09 55.54 55.86 56.24 56.82 55.92 56.40 57.17 55.18 53.37 54.64 54.68 51.88 40.14 33.54 42.56 45.65 44.76 43.32 45.33 45.15 46.81 45.65 46.50 45.30 42.08 40.62 37.78 40.55 38.83 37.33 39.61 39.17 40.29 37.03 36.59 35.55 32.05 27.64
56.32 55.19 53.76 53.48 55.42 54.55 53.70 53.50 54.01 54.95 55.52 55.73 55.76 55.77 55.31 57.59 52.69 54.50 53.32 50.46 39.30 33.22 43.82 40.85 42.11 44.56 42.70 42.15 42.86 43.69 41.59 38.49 37.55 33.66 32.86 36.94 36.99 37.38 39.31 35.82 38.25 36.61 31.95 29.17 30.09 27.67 29.02
55.40 54.16 53.84 53.68 53.51 55.10 54.18 53.74 53.79 53.88 54.53 55.33 55.38 55.21 55.78 58.60 57.56 54.75 50.26 43.01 33.32 42.65 40.26 45.44 44.75 43.86 40.81 43.13 42.08 42.45 39.50 37.32 40.19 38.30 35.14 33.57 32.51 35.47 37.89 34.70 32.99 33.50 32.20 28.71 25.64 25.81 29.00
55.19 54.58 54.14 54.08 53.77 53.72 54.46 53.60 53.33 53.63 54.15 54.85 54.39 53.36 54.32 56.84 57.98 51.83 46.20 36.28 37.24 40.85 44.61 43.81 43.51 38.84 38.79 42.50 40.94 39.51 38.21 37.93 39.42 40.83 34.80 33.46 33.06 35.90 36.81 35.98 35.26 33.42 30.39 33.41 29.97 29.75 27.58
56.18 55.66 54.82 54.29 54.03 53.55 53.16 52.39 52.29 52.62 53.81 54.11 49.47 52.42 53.94 54.00 54.05 49.70 43.25 39.93 41.75 46.43 46.00 45.17 38.87 41.05 37.82 39.24 37.91 37.79 38.37 40.47 40.91 40.90 39.36 36.11 31.67 35.42 36.01 35.78 35.13 32.08 35.18 30.35 30.22 24.56 25.29
56.26 55.61 55.03 54.63 54.49 53.90 52.78 52.12 52.09 52.11 53.17 52.98 49.38 48.59 51.08 53.10 51.25 44.84 37.76 39.71 45.15 47.54 47.45 43.68 41.58 41.21 41.00 40.38 39.49 38.25 39.56 40.29 41.98 40.06 39.35 36.49 34.79 31.24 34.11 32.31 33.00 31.37 30.57 31.01 31.10 30.15 24.11
57.18 56.35 55.60 55.25 54.92 54.27 53.11 52.35 51.43 51.61 52.45 51.89 50.08 43.75 51.45 51.27 41.97 40.63 38.94 44.33 47.21 45.94 46.45 45.41 44.20 43.98 41.76 41.34 40.17 39.41 39.85 40.38 42.19 41.40 37.67 37.95 35.36 31.05 32.23 33.72 35.25 33.48 32.97 32.69 26.03 28.20 25.90
57.70 57.00 56.31 55.67 55.01 54.44 53.65 52.61 51.42 51.48 52.06 49.39 47.28 46.54 50.72 49.92 39.43 39.51 43.98 45.49 46.97 45.73 44.47 44.36 44.14 45.35 44.03 41.00 37.85 40.71 40.71 42.51 42.18 41.16 38.64 37.70 33.18 28.81 28.85 31.94 33.40 31.32 33.30 33.54 33.17 29.61 27.75
57.97 57.28 56.71 55.99 55.06 54.58 53.68 52.87 51.70 50.93 52.46 49.05 46.99 41.72 44.18 44.59 43.75 42.28 41.79 44.02 43.45 46.37 45.52 45.91 44.91 44.97 42.28 40.55 41.76 39.85 40.42 41.38 41.54 41.74 47.30 43.07 34.90 33.09 30.70 33.19 35.13 30.09 33.04 32.95 32.06 22.72 24.52
57.87 57.37 56.99 56.36 55.28 54.77 53.93 53.00 51.89 51.07 52.05 49.33 46.19 42.60 44.33 38.17 40.70 41.89 41.92 43.73 43.25 42.81 44.68 44.88 42.38 43.39 42.10 38.26 39.25 39.13 40.65 38.54 40.35 44.78 38.70 37.94 32.69 33.95 36.43 37.93 36.61 35.91 35.58 33.44 29.46 32.01 30.11
57.83 57.48 57.18 56.59 55.66 54.95 54.23 53.24 52.33 51.71 51.66 48.35 45.12 42.52 43.54 41.77 43.39 41.96 42.05 41.54 42.99 43.87 43.30 42.12 41.16 43.27 42.24 39.44 41.06 38.89 41.02 38.07 39.17 37.36 37.21 36.63 33.49 34.25 33.72 38.44 37.80 35.78 36.02 35.22 34.21 34.35 31.92
57.95 57.45 56.96 56.66 55.85 54.99 54.32 53.08 52.50 51.75 51.04 47.46 49.54 47.72 44.86 41.97 40.38 39.91 40.53 42.19 43.30 44.48 45.19 45.93 44.46 42.18 41.43 42.98 42.07 42.41 42.54 42.87 42.82 38.48 35.92 35.20 33.54 32.06 29.08 35.35 34.41 31.89 34.18 35.23 35.23 34.36 35.34
58.19 57.48 56.92 56.66 55.91 55.07 54.64 53.48 52.87 51.80 50.10 47.44 49.82 47.14 41.68 37.64 40.70 40.87 43.50 44.83 44.42 44.25 42.28 45.04 44.48 42.84 43.85 43.69 42.56 41.37 39.84 40.75 41.47 39.91 40.18 36.01 34.00 30.96 27.86 32.10 25.56 37.12 38.37 38.14 37.47 38.66 37.35
58.57 57.78 56.98 56.68 56.04 55.17 54.69 54.02 53.59 52.28 51.18 44.54 48.63 48.35 44.19 38.18 42.95 43.24 43.95 42.85 42.96 43.64 43.11 43.84 42.57 42.23 43.33 42.31 38.48 36.29 36.20 37.03 38.46 39.57 39.55 39.53 35.06 27.46 26.92 26.69 33.32 38.68 39.81 36.60 35.67 37.28 39.58
58.83 58.28 57.56 56.80 56.10 55.14 54.46 53.98 53.53 52.83 51.57 45.35 45.47 50.72 47.23 40.97 39.89 45.84 43.96 43.62 40.81 39.60 39.63 41.54 39.67 41.57 42.75 39.88 37.96 31.33 30.06 34.02 33.66 33.16 36.30 36.77 36.29 33.26 26.01 24.28 25.65 35.81 36.19 38.04 36.81 30.86 39.29
55.24 57.79 57.96 57.20 56.22 55.25 54.81 54.30 53.62 52.95 51.96 44.99 43.69 49.57 48.09 42.62 45.06 45.09 41.79 42.21 44.44 42.18 38.77 37.56 37.47 37.92 40.31 34.73 31.16 31.99 33.47 38.94 32.97 30.48 29.44 29.04 26.16 27.11 27.80 25.83 31.76 40.02 38.09 37.53 30.00 34.13 37.94
55.80 55.94 56.63 57.39 56.41 55.43 55.06 54.58 53.58 53.06 52.33 47.21 42.30 48.90 49.01 43.90 44.76 46.15 46.75 43.69 43.98 43.59 39.35 38.91 38.37 37.10 34.25 33.88 33.62 34.86 33.77 36.44 34.89 35.22 31.20 30.21 27.87 25.87 25.69 25.11 28.03 40.06 35.97 35.12 38.26 37.30 38.57
55.88 55.89 55.85 57.03 56.40 55.50 54.98 54.53 53.74 53.33 52.51 49.53 41.02 46.61 51.22 47.48 44.09 47.49 48.22 48.72 47.32 44.87 43.80 37.51 39.66 37.35 38.25 35.12 35.22 35.99 34.32 35.67 35.81 32.00 34.46 31.60 34.78 31.52 32.74 33.85 40.73 38.96 40.32 39.47 39.98 39.64 38.92